Home   Weather   Görlitz   Past weeks

Flag for Germany Past Weather in Görlitz, Saxony, Germany — Yesterday and Last 2 Weeks

Now
54 °F

Cool.


Feels Like: 54 °F
Forecast: 53 / 73 °F
Wind: No wind

Location: Liberec

Current Time: Oct 1, 2016 at 12:04:35 AM

Latest Report: Sep 30, 2016 at 11:00 PM


Visibility: 13 mi

Pressure: 30.01 "Hg

Humidity: 87%

Dew Point: 50 °F

Location of GörlitzLocation

Past Weather in Görlitz — Graph

°F

Görlitz Temperature Yesterday

Maximum temperature yesterday: 70 °F (at 3:00 PM)
Minimum temperature yesterday: 55 °F (at 6:00 AM)
Average temperature yesterday: 62 °F

High & Low Weather Summary for the Past Weeks

 TemperatureHumidityPressure
High75 °F (Sep 16, 4:00 PM)99% (Sep 18, 8:00 PM)30.39 "Hg (Sep 18, 8:00 PM)
Low35 °F (Sep 22, 7:00 AM)32% (Sep 22, 1:00 PM)29.78 "Hg (Sep 17, 4:00 PM)
Average55 °F78%30.11 "Hg
* Reported Sep 15 10:00 PM — Sep 30 10:00 PM, Görlitz, Weather by CustomWeather, © 2016

Note: Actual official high and low records may vary slightly from our data, if they occured in-between our weather recording intervals... More about our weather records

Advertising

Görlitz Weather History for the Previous 24 Hours

Scroll right to see more
 ConditionsComfort  
Time TempWeatherWind HumidityBarometerVisibility
10:00 PM
Fri, Sep 30
56 °FOvercast.No wind88%30.00 "Hg12 mi
9:00 PM56 °FOvercast.1 mph86%30.00 "Hg14 mi
8:00 PM58 °FOvercast.1 mph81%30.00 "Hg12 mi
7:00 PM59 °FRain showers. Overcast.2 mph81%29.99 "Hg12 mi
6:00 PM67 °FMild.3 mph56%29.92 "Hg12 mi
5:00 PM68 °FOvercast.3 mph52%29.91 "Hg28 mi
4:00 PM70 °FPartly sunny.2 mph49%29.91 "Hg28 mi
3:00 PM70 °FScattered clouds.3 mph47%29.92 "Hg28 mi
2:00 PM67 °FPartly sunny.3 mph56%29.95 "Hg28 mi
1:00 PM66 °FPartly sunny.3 mph62%29.96 "Hg28 mi
12:00 PM68 °FScattered clouds.3 mph53%29.96 "Hg28 mi
11:00 AM66 °FScattered clouds.3 mph56%29.98 "Hg28 mi
10:00 AM64 °FScattered clouds.2 mph65%29.98 "Hg25 mi
8:00 AM57 °FOvercast.1 mph83%29.98 "Hg17 mi
6:00 AM55 °FCool.2 mph84%29.97 "Hg12 mi
5:00 AM55 °FCool.2 mph83%29.96 "Hg12 mi
4:00 AM57 °FCool.2 mph79%29.96 "Hg12 mi
3:00 AM58 °FCool.1 mph80%29.96 "Hg12 mi
2:00 AM58 °FCool.2 mph78%29.97 "Hg12 mi
1:00 AM58 °FCool.2 mph78%29.98 "Hg12 mi
12:00 AM61 °FCool.2 mph72%29.98 "Hg12 mi
Weather by CustomWeather, © 2016

See weather overviewHow to use our weather pages